QPF
0.00 0.00 0.00 0.00 0.00 0.00 0.00 0.00 0.00 0.00 0.00 0.00 0.00 0.00 0.00 0.00 0.00 0.00 0.00 0.00 0.00 0.00 0.00 0.00 0.00 0.01 0.01 0.01 0.02 0.02 0.02 0.02 0.02 0.02 0.02 0.03 0.03 0.03
0.00 0.00 0.00 0.00 0.00 0.00 0.00 0.00 0.00 0.00 0.00 0.00 0.00 0.00 0.00 0.00 0.00 0.00 0.00 0.00 0.00 0.00 0.00 0.00 0.00 0.00 0.01 0.01 0.01 0.02 0.02 0.02 0.02 0.03 0.03 0.04 0.04 0.04
0.00 0.00 0.00 0.00 0.00 0.00 0.00 0.00 0.00 0.00 0.00 0.00 0.00 0.00 0.00 0.00 0.00 0.00 0.00 0.00 0.00 0.00 0.00 0.00 0.00 0.00 0.01 0.01 0.01 0.02 0.02 0.03 0.03 0.03 0.04 0.04 0.04 0.05
0.00 0.00 0.00 0.00 0.00 0.00 0.00 0.00 0.00 0.00 0.00 0.00 0.00 0.00 0.00 0.00 0.00 0.00 0.00 0.00 0.00 0.00 0.00 0.00 0.00 0.01 0.01 0.01 0.01 0.02 0.02 0.02 0.02 0.03 0.03 0.03 0.04 0.04
0.00 0.00 0.00 0.00 0.00 0.00 0.00 0.00 0.00 0.00 0.01 0.01 0.00 0.00 0.00 0.00 0.00 0.00 0.00 0.00 0.00 0.00 0.00 0.00 0.00 0.00 0.00 0.01 0.01 0.01 0.01 0.02 0.02 0.02 0.03 0.03 0.03 0.04
0.00 0.00 0.00 0.00 0.00 0.00 0.00 0.01 0.01 0.01 0.01 0.01 0.01 0.00 0.00 0.00 0.00 0.00 0.00 0.00 0.00 0.00 0.00 0.00 0.00 0.00 0.00 0.00 0.00 0.01 0.01 0.01 0.01 0.01 0.02 0.02 0.02 0.03
0.00 0.00 0.00 0.00 0.00 0.00 0.00 0.01 0.01 0.02 0.02 0.02 0.01 0.01 0.00 0.00 0.00 0.00 0.00 0.00 0.00 0.00 0.00 0.00 0.00 0.00 0.00 0.00 0.00 0.00 0.00 0.00 0.01 0.01 0.02 0.02 0.03 0.03
0.00 0.00 0.00 0.00 0.00 0.00 0.01 0.02 0.02 0.02 0.02 0.02 0.01 0.01 0.00 0.00 0.00 0.00 0.01 0.01 0.00 0.00 0.00 0.00 0.00 0.00 0.00 0.00 0.00 0.00 0.00 0.01 0.02 0.02 0.03 0.04 0.04 0.04
0.00 0.00 0.00 0.00 0.00 0.00 0.01 0.03 0.04 0.05 0.03 0.02 0.02 0.01 0.00 0.00 0.00 0.01 0.01 0.01 0.00 0.00 0.00 0.00 0.00 0.00 0.00 0.00 0.00 0.00 0.01 0.01 0.01 0.02 0.03 0.04 0.05 0.05
0.00 0.00 0.00 0.00 0.00 0.01 0.01 0.02 0.02 0.03 0.05 0.07 0.07 0.03 0.01 0.00 0.01 0.01 0.02 0.03 0.02 0.00 0.01 0.01 0.00 0.00 0.00 0.00 0.00 0.00 0.00 0.01 0.01 0.02 0.03 0.03 0.04 0.04
0.00 0.00 0.00 0.00 0.00 0.01 0.04 0.03 0.01 0.00 0.01 0.03 0.07 0.06 0.03 0.02 0.02 0.05 0.07 0.06 0.03 0.00 0.00 0.01 0.00 0.00 0.00 0.00 0.00 0.00 0.00 0.00 0.01 0.01 0.02 0.03 0.04 0.04
0.00 0.00 0.00 0.01 0.01 0.02 0.05 0.04 0.02 0.00 0.00 0.01 0.02 0.04 0.04 0.04 0.04 0.05 0.06 0.05 0.03 0.01 0.00 0.00 0.00 0.01 0.01 0.00 0.00 0.00 0.00 0.00 0.00 0.01 0.01 0.01 0.02 0.03
0.00 0.01 0.00 0.01 0.02 0.03 0.04 0.04 0.02 0.01 0.01 0.02 0.02 0.01 0.01 0.02 0.02 0.02 0.02 0.02 0.02 0.01 0.00 0.00 0.01 0.01 0.02 0.01 0.00 0.00 0.00 0.00 0.00 0.00 0.00 0.00 0.01 0.03
0.01 0.01 0.01 0.01 0.02 0.04 0.05 0.06 0.04 0.04 0.06 0.05 0.03 0.02 0.01 0.01 0.01 0.01 0.01 0.01 0.01 0.00 0.00 0.01 0.02 0.02 0.03 0.02 0.00 0.00 0.00 0.00 0.00 0.00 0.00 0.00 0.01 0.02
0.01 0.01 0.01 0.02 0.02 0.03 0.04 0.06 0.08 0.09 0.11 0.08 0.03 0.01 0.00 0.00 0.01 0.01 0.01 0.01 0.01 0.00 0.00 0.01 0.01 0.02 0.03 0.03 0.01 0.00 0.00 0.00 0.00 0.00 0.00 0.01 0.01 0.02
0.01 0.02 0.03 0.04 0.03 0.03 0.03 0.04 0.06 0.08 0.08 0.06 0.02 0.01 0.01 0.01 0.01 0.01 0.01 0.01 0.01 0.00 0.00 0.00 0.01 0.02 0.03 0.02 0.02 0.01 0.00 0.00 0.00 0.00 0.01 0.01 0.01 0.02
0.02 0.03 0.04 0.05 0.06 0.06 0.04 0.03 0.04 0.05 0.06 0.05 0.03 0.02 0.02 0.01 0.01 0.01 0.01 0.00 0.01 0.00 0.00 0.00 0.00 0.01 0.02 0.03 0.03 0.01 0.00 0.00 0.00 0.01 0.02 0.02 0.01 0.01
0.06 0.07 0.05 0.04 0.05 0.05 0.05 0.04 0.03 0.03 0.03 0.03 0.03 0.02 0.01 0.01 0.01 0.00 0.00 0.00 0.01 0.00 0.00 0.00 0.01 0.01 0.01 0.01 0.01 0.01 0.01 0.01 0.01 0.02 0.03 0.04 0.02 0.01
0.07 0.06 0.04 0.04 0.04 0.04 0.04 0.03 0.03 0.02 0.02 0.02 0.02 0.01 0.01 0.01 0.00 0.00 0.00 0.00 0.01 0.00 0.00 0.00 0.01 0.04 0.04 0.01 0.00 0.00 0.02 0.02 0.02 0.02 0.02 0.04 0.03 0.01
0.05 0.05 0.04 0.03 0.03 0.03 0.03 0.03 0.03 0.03 0.02 0.02 0.01 0.01 0.01 0.01 0.01 0.00 0.00 0.01 0.01 0.01 0.01 0.00 0.01 0.03 0.05 0.04 0.02 0.00 0.01 0.03 0.04 0.03 0.02 0.02 0.02 0.01
0.04 0.04 0.04 0.04 0.03 0.03 0.03 0.03 0.03 0.03 0.02 0.01 0.01 0.01 0.01 0.01 0.01 0.00 0.00 0.01 0.01 0.01 0.01 0.01 0.00 0.02 0.04 0.05 0.03 0.01 0.00 0.01 0.03 0.05 0.05 0.05 0.03 0.02
0.03 0.03 0.03 0.03 0.03 0.03 0.03 0.03 0.03 0.02 0.02 0.01 0.01 0.01 0.01 0.01 0.01 0.01 0.01 0.01 0.01 0.01 0.01 0.00 0.00 0.01 0.03 0.05 0.03 0.01 0.00 0.00 0.01 0.02 0.04 0.05 0.05 0.04
0.02 0.03 0.03 0.03 0.03 0.03 0.03 0.03 0.02 0.02 0.01 0.01 0.01 0.01 0.01 0.01 0.00 0.01 0.01 0.01 0.02 0.01 0.01 0.01 0.01 0.01 0.02 0.03 0.03 0.02 0.01 0.01 0.01 0.01 0.01 0.01 0.01 0.02
MSLP
1014.00 1014.48 1014.96 1015.41 1015.79 1016.09 1016.29 1016.40 1016.44 1016.42 1016.38 1016.34 1016.32 1016.33 1016.39 1016.48 1016.58 1016.69 1016.78 1016.85 1016.88 1016.86 1016.81 1016.72 1016.61 1016.49 1016.35 1016.22 1016.10 1015.98 1015.86 1015.74 1015.62 1015.48 1015.33 1015.16 1014.98 1014.79
1012.42 1012.89 1013.38 1013.85 1014.28 1014.63 1014.89 1015.08 1015.19 1015.25 1015.29 1015.33 1015.39 1015.48 1015.60 1015.74 1015.88 1016.01 1016.11 1016.17 1016.18 1016.14 1016.06 1015.95 1015.81 1015.66 1015.52 1015.38 1015.24 1015.11 1014.99 1014.86 1014.72 1014.56 1014.39 1014.20 1014.00 1013.80
1010.85 1011.29 1011.76 1012.23 1012.66 1013.04 1013.36 1013.61 1013.81 1013.97 1014.11 1014.26 1014.42 1014.60 1014.80 1015.00 1015.18 1015.33 1015.44 1015.48 1015.47 1015.39 1015.27 1015.12 1014.95 1014.78 1014.61 1014.46 1014.32 1014.18 1014.04 1013.90 1013.74 1013.57 1013.38 1013.17 1012.95 1012.73
1009.33 1009.71 1010.14 1010.58 1011.01 1011.41 1011.77 1012.08 1012.36 1012.62 1012.87 1013.13 1013.40 1013.68 1013.95 1014.21 1014.44 1014.61 1014.71 1014.74 1014.69 1014.58 1014.43 1014.24 1014.04 1013.84 1013.66 1013.49 1013.34 1013.19 1013.04 1012.88 1012.71 1012.51 1012.30 1012.07 1011.83 1011.59
1007.87 1008.20 1008.57 1008.98 1009.40 1009.80 1010.19 1010.55 1010.90 1011.25 1011.59 1011.95 1012.32 1012.68 1013.03 1013.34 1013.60 1013.79 1013.89 1013.91 1013.84 1013.70 1013.52 1013.31 1013.09 1012.88 1012.68 1012.50 1012.33 1012.17 1012.00 1011.82 1011.62 1011.40 1011.15 1010.90 1010.63 1010.37
1006.51 1006.77 1007.10 1007.48 1007.87 1008.28 1008.68 1009.08 1009.48 1009.89 1010.31 1010.74 1011.18 1011.61 1012.01 1012.36 1012.65 1012.85 1012.95 1012.97 1012.89 1012.75 1012.56 1012.34 1012.12 1011.90 1011.69 1011.50 1011.32 1011.13 1010.93 1010.71 1010.47 1010.21 1009.93 1009.64 1009.35 1009.07
1005.24 1005.46 1005.75 1006.09 1006.47 1006.87 1007.28 1007.70 1008.13 1008.58 1009.04 1009.51 1009.99 1010.45 1010.88 1011.26 1011.56 1011.77 1011.89 1011.92 1011.86 1011.73 1011.56 1011.35 1011.14 1010.92 1010.71 1010.50 1010.29 1010.06 1009.82 1009.55 1009.26 1008.95 1008.63 1008.30 1007.98 1007.67
1004.06 1004.25 1004.52 1004.84 1005.19 1005.58 1005.99 1006.41 1006.85 1007.30 1007.77 1008.26 1008.75 1009.22 1009.66 1010.04 1010.36 1010.59 1010.73 1010.79 1010.76 1010.67 1010.53 1010.36 1010.16 1009.96 1009.74 1009.50 1009.25 1008.97 1008.67 1008.33 1007.98 1007.61 1007.24 1006.88 1006.52 1006.18
1002.97 1003.14 1003.38 1003.68 1004.02 1004.39 1004.78 1005.19 1005.62 1006.06 1006.52 1006.99 1007.47 1007.93 1008.36 1008.76 1009.08 1009.34 1009.52 1009.61 1009.64 1009.60 1009.51 1009.37 1009.20 1009.00 1008.76 1008.49 1008.18 1007.84 1007.46 1007.05 1006.63 1006.20 1005.77 1005.37 1004.99 1004.63
1001.96 1002.11 1002.33 1002.61 1002.93 1003.28 1003.64 1004.02 1004.42 1004.84 1005.27 1005.72 1006.17 1006.62 1007.04 1007.44 1007.78 1008.07 1008.29 1008.44 1008.53 1008.55 1008.51 1008.41 1008.26 1008.05 1007.79 1007.47 1007.09 1006.67 1006.21 1005.72 1005.22 1004.73 1004.26 1003.81 1003.41 1003.04
1001.02 1001.15 1001.35 1001.60 1001.89 1002.20 1002.54 1002.89 1003.25 1003.64 1004.04 1004.46 1004.89 1005.32 1005.75 1006.15 1006.52 1006.85 1007.12 1007.33 1007.47 1007.55 1007.55 1007.48 1007.34 1007.11 1006.81 1006.44 1005.99 1005.48 1004.93 1004.36 1003.79 1003.24 1002.72 1002.25 1001.82 1001.44
1000.14 1000.25 1000.42 1000.64 1000.89 1001.17 1001.46 1001.78 1002.11 1002.46 1002.84 1003.24 1003.66 1004.09 1004.53 1004.96 1005.36 1005.73 1006.05 1006.31 1006.51 1006.63 1006.66 1006.61 1006.45 1006.20 1005.85 1005.41 1004.88 1004.29 1003.66 1003.01 1002.38 1001.77 1001.22 1000.72 1000.27 999.87
999.34 999.41 999.55 999.73 999.94 1000.17 1000.43 1000.71 1001.01 1001.34 1001.71 1002.10 1002.53 1002.97 1003.44 1003.89 1004.34 1004.75 1005.12 1005.43 1005.66 1005.81 1005.86 1005.80 1005.63 1005.33 1004.93 1004.41 1003.81 1003.14 1002.43 1001.71 1001.02 1000.36 999.76 999.23 998.76 998.33
998.61 998.65 998.75 998.89 999.05 999.24 999.46 999.71 999.99 1000.31 1000.68 1001.08 1001.53 1002.00 1002.50 1003.00 1003.48 1003.93 1004.34 1004.68 1004.94 1005.10 1005.15 1005.07 1004.87 1004.52 1004.06 1003.47 1002.79 1002.05 1001.27 1000.48 999.72 999.01 998.37 997.80 997.29 996.82
997.95 997.97 998.03 998.12 998.25 998.40 998.58 998.81 999.08 999.40 999.78 1000.21 1000.68 1001.20 1001.73 1002.27 1002.79 1003.28 1003.71 1004.08 1004.34 1004.50 1004.53 1004.42 1004.17 1003.78 1003.25 1002.60 1001.84 1001.03 1000.17 999.32 998.49 997.72 997.02 996.39 995.82 995.30
997.35 997.35 997.38 997.44 997.53 997.65 997.81 998.03 998.29 998.63 999.03 999.49 1000.00 1000.55 1001.12 1001.69 1002.24 1002.75 1003.20 1003.57 1003.83 1003.97 1003.97 1003.83 1003.53 1003.09 1002.50 1001.78 1000.96 1000.07 999.13 998.20 997.30 996.45 995.66 994.95 994.30 993.71
996.76 996.75 996.77 996.81 996.88 996.99 997.14 997.35 997.63 997.98 998.41 998.90 999.44 1000.03 1000.63 1001.22 1001.79 1002.31 1002.76 1003.11 1003.36 1003.47 1003.44 1003.26 1002.92 1002.43 1001.78 1001.00 1000.11 999.14 998.12 997.10 996.10 995.15 994.26 993.45 992.70 992.01
996.15 996.15 996.17 996.22 996.28 996.39 996.55 996.77 997.07 997.44 997.90 998.41 998.98 999.59 1000.20 1000.80 1001.37 1001.88 1002.31 1002.65 1002.86 1002.95 1002.89 1002.67 1002.29 1001.75 1001.06 1000.22 999.25 998.21 997.10 995.98 994.87 993.80 992.79 991.85 991.00 990.21
995.49 995.52 995.56 995.61 995.70 995.82 996.00 996.25 996.57 996.97 997.45 997.98 998.57 999.17 999.79 1000.38 1000.92 1001.41 1001.82 1002.12 1002.31 1002.36 1002.27 1002.03 1001.61 1001.04 1000.30 999.40 998.38 997.25 996.06 994.83 993.60 992.40 991.27 990.21 989.23 988.34
994.77 994.83 994.91 994.99 995.11 995.27 995.48 995.76 996.12 996.54 997.03 997.58 998.16 998.75 999.34 999.90 1000.42 1000.87 1001.24 1001.50 1001.66 1001.68 1001.57 1001.30 1000.87 1000.26 999.49 998.56 997.48 996.29 995.01 993.68 992.34 991.03 989.77 988.59 987.50 986.51
994.02 994.11 994.22 994.35 994.52 994.72 994.98 995.30 995.68 996.13 996.63 997.17 997.73 998.30 998.85 999.37 999.84 1000.24 1000.56 1000.79 1000.92 1000.92 1000.79 1000.51 1000.06 999.45 998.66 997.70 996.58 995.34 994.00 992.59 991.17 989.76 988.40 987.12 985.94 984.87
993.27 993.40 993.55 993.73 993.94 994.20 994.50 994.86 995.27 995.73 996.23 996.76 997.29 997.82 998.32 998.78 999.20 999.55 999.82 1000.02 1000.11 1000.10 999.96 999.67 999.23 998.61 997.83 996.86 995.73 994.47 993.09 991.65 990.17 988.70 987.28 985.93 984.69 983.56
992.59 992.75 992.95 993.17 993.43 993.74 994.08 994.48 994.91 995.37 995.86 996.36 996.85 997.33 997.77 998.17 998.53 998.83 999.06 999.22 999.29 999.27 999.13 998.85 998.42 997.82 997.05 996.10 994.99 993.73 992.37 990.92 989.44 987.96 986.52 985.15 983.87 982.70
Thickness
5500 5493 5487 5484 5476 5470 5462 5455 5447 5451 5462 5456 5448 5446 5439 5435 5431 5428 5425 5421 5419 5416 5414 5412 5411 5410 5409 5409 5410 5410 5411 5412 5414 5416 5418 5420 5423 5425
5493 5486 5482 5477 5469 5462 5456 5449 5442 5440 5447 5449 5442 5435 5429 5425 5420 5416 5414 5409 5407 5404 5402 5400 5399 5397 5396 5396 5396 5396 5397 5398 5400 5402 5403 5405 5408 5410
5485 5479 5476 5468 5462 5455 5448 5442 5436 5430 5433 5440 5427 5422 5416 5411 5408 5405 5401 5397 5394 5391 5389 5388 5386 5385 5384 5383 5383 5383 5383 5384 5385 5387 5388 5390 5391 5394
5477 5471 5468 5459 5454 5448 5441 5436 5431 5425 5422 5425 5417 5409 5405 5400 5395 5391 5388 5385 5381 5379 5377 5376 5374 5373 5372 5371 5370 5369 5369 5369 5370 5371 5372 5373 5374 5375
5468 5463 5459 5450 5446 5440 5434 5429 5424 5418 5413 5411 5410 5400 5394 5388 5382 5379 5376 5372 5369 5367 5365 5364 5363 5361 5360 5358 5357 5356 5355 5355 5355 5355 5355 5355 5355 5355
5458 5454 5449 5443 5438 5432 5426 5422 5415 5409 5403 5400 5398 5391 5383 5377 5370 5368 5364 5361 5358 5356 5354 5352 5351 5349 5348 5346 5344 5343 5341 5340 5339 5339 5338 5337 5336 5336
5447 5443 5439 5435 5430 5423 5417 5412 5404 5399 5393 5389 5386 5380 5375 5367 5363 5358 5354 5351 5349 5345 5342 5340 5338 5337 5334 5331 5329 5328 5326 5324 5323 5322 5322 5321 5319 5318
5436 5433 5429 5425 5422 5418 5414 5408 5399 5391 5386 5381 5378 5373 5368 5360 5353 5347 5341 5338 5338 5336 5331 5332 5327 5326 5323 5319 5316 5314 5312 5311 5309 5308 5307 5305 5304 5302
5427 5423 5419 5416 5412 5406 5403 5401 5398 5393 5385 5374 5370 5367 5358 5351 5342 5336 5332 5330 5330 5326 5318 5322 5318 5317 5314 5310 5307 5304 5301 5298 5296 5295 5293 5291 5289 5287
5419 5415 5410 5407 5402 5396 5391 5388 5385 5382 5377 5372 5366 5359 5350 5343 5335 5329 5323 5320 5319 5316 5309 5310 5310 5307 5306 5302 5297 5292 5289 5286 5284 5282 5280 5278 5275 5273
5408 5405 5401 5398 5394 5389 5384 5379 5375 5371 5366 5362 5357 5351 5344 5336 5327 5318 5314 5310 5312 5311 5303 5298 5299 5296 5296 5294 5289 5282 5278 5274 5271 5269 5268 5265 5263 5261
5397 5394 5393 5389 5385 5381 5376 5371 5367 5362 5354 5349 5345 5342 5336 5330 5324 5316 5310 5305 5305 5303 5296 5286 5284 5277 5283 5288 5280 5273 5267 5262 5258 5257 5255 5254 5252 5248
5388 5385 5382 5380 5378 5375 5370 5364 5360 5352 5345 5339 5333 5329 5323 5318 5313 5308 5302 5297 5293 5291 5284 5274 5270 5265 5263 5273 5273 5266 5258 5254 5250 5248 5245 5244 5242 5239
5379 5377 5374 5372 5369 5366 5362 5358 5352 5346 5337 5330 5325 5320 5315 5310 5305 5299 5294 5288 5284 5280 5273 5264 5259 5254 5252 5256 5262 5261 5252 5245 5241 5240 5238 5237 5236 5235
5370 5369 5367 5364 5361 5357 5353 5349 5344 5337 5331 5325 5319 5314 5308 5302 5296 5289 5283 5278 5273 5269 5262 5255 5249 5246 5242 5243 5248 5249 5245 5243 5236 5234 5232 5231 5231 5229
5359 5359 5358 5356 5351 5346 5342 5337 5333 5327 5322 5318 5312 5306 5299 5292 5286 5280 5273 5267 5262 5261 5255 5248 5243 5238 5236 5235 5234 5238 5236 5234 5234 5228 5227 5228 5228 5227
5350 5347 5343 5340 5337 5333 5329 5325 5321 5316 5313 5308 5303 5297 5290 5284 5278 5271 5264 5258 5254 5253 5249 5243 5237 5233 5231 5227 5228 5230 5230 5230 5228 5225 5223 5227 5231 5229
5346 5341 5336 5331 5327 5323 5320 5316 5312 5308 5303 5299 5294 5289 5283 5277 5271 5263 5257 5251 5248 5245 5241 5236 5231 5228 5228 5228 5224 5224 5226 5226 5225 5222 5220 5223 5232 5235
5337 5333 5329 5324 5319 5315 5311 5307 5303 5300 5295 5291 5286 5280 5275 5269 5263 5257 5251 5245 5241 5239 5235 5229 5224 5222 5224 5230 5230 5223 5221 5223 5222 5222 5220 5222 5230 5239
5326 5323 5320 5317 5312 5307 5303 5299 5295 5291 5286 5282 5277 5272 5267 5262 5256 5251 5245 5240 5237 5234 5230 5226 5221 5218 5218 5223 5227 5226 5218 5217 5219 5221 5224 5227 5234 5243
5318 5315 5312 5309 5305 5301 5296 5292 5288 5284 5279 5275 5270 5265 5260 5255 5250 5245 5240 5238 5234 5230 5227 5225 5222 5220 5217 5215 5219 5227 5224 5220 5219 5221 5226 5231 5241 5252
5312 5309 5305 5302 5298 5293 5289 5285 5280 5277 5272 5268 5263 5259 5254 5249 5245 5240 5236 5232 5229 5226 5225 5224 5220 5216 5213 5213 5217 5222 5226 5226 5226 5228 5233 5239 5245 5262
5307 5304 5300 5296 5292 5287 5283 5278 5274 5271 5267 5262 5258 5253 5248 5244 5240 5236 5232 5229 5226 5224 5222 5221 5219 5215 5214 5213 5215 5218 5222 5226 5231 5238 5247 5255 5263 5274